Location: Date Creek
(34.2167°N, 113.0301°W)
Time: 22:06:07
(UTC-07:00)

ISS - Visible Passes

Search period start: 17 February 2018 00:00
Search period end: 27 February 2018 00:00
Orbit: 403 x 407 km, 51.6° (Epoch: 18 February)

Date Brightness Start Highest point End Pass type
(mag) Time Alt. Az. Time Alt. Az. Time Alt. Az.
24 Feb -1.3 06:11:57 10° S 06:14:32 22° SE 06:17:08 10° ENE visible
25 Feb -0.5 05:21:51 10° SE 05:22:28 10° SE 05:23:04 10° ESE visible
26 Feb -3.5 06:03:15 11° SW 06:06:16 66° SE 06:09:31 10° NE visible
